Regional Weather Roundup
Issued by NWS

Home | Current Version | Previous Version | Graphics & Text | Print | Product List | Glossary On
Versions: 1 2 3 4 5 6 7 8 9 10 11 12 13 14 15 16 17 18 19 20 21 22 23 24 25 26 27 28 29 30 31 32 33 34 35 36 37 38 39 40 41 42 43 44 45 46 47 48 49 50
020
ASUS45 KBOU 271010
RWRCO

WEATHER ROUNDUP FOR COLORADO
NATIONAL WEATHER SERVICE DENVER/BOULDER CO
400 AM MDT TUE SEP 27 2016

NOTE: "FAIR" INDICATES FEW OR NO CLOUDS BELOW 12000 FEET WITH NO
SIGNIFICANT WEATHER AND/OR OBSTRUCTIONS TO VISIBILITY.

COZ001>005-013-030-031-271100-
...NORTHWEST COLORADO...

CITY           SKY/WX    TMP DP  RH WIND       PRES   REMARKS
CRAIG          FAIR      33  30  88 CALM      30.35F
HAYDEN         FAIR      43  30  61 E12       30.36S
MEEKER         FAIR      41  35  79 CALM      30.36F
MOUNT WERNER   NOT AVBL
STEAMBOAT SPGS FAIR      37  32  84 CALM      30.38S
WALDEN           N/A     30  27  86 SE3       30.45F
$$

COZ006>008-011-271100-
...WEST CENTRAL VALLEYS...

CITY           SKY/WX    TMP DP  RH WIND       PRES   REMARKS
GRAND JUNCTION FAIR      51  39  63 SE13      30.25F
MONTROSE       FAIR      46  37  71 S8        30.33F
EAGLE          FAIR      39  30  70 E5        30.41F
RIFLE          FAIR      44  39  82 CALM      30.32F
DELTA          NOT AVBL
NUCLA          FAIR      46  34  61 E5        30.35S
$$

COZ017>023-064>068-271100-
...SOUTHWEST COLORADO...

CITY           SKY/WX    TMP DP  RH WIND       PRES   REMARKS
DURANGO        FAIR      40  34  79 NE3       30.38F
CORTEZ         FAIR      40  36  86 CALM      30.32F
PAGOSA SPRINGS FAIR      38  33  80 CALM      30.43F
TELLURIDE      FAIR      44  35  72 SE5       30.49F
WOLF CREEK PAS FAIR      41  28  60 MISG      30.65F
$$

COZ009-010-012-014-032>034-037-058>063-271100-
...CENTRAL COLORADO...

CITY           SKY/WX    TMP DP  RH WIND       PRES   REMARKS
ASPEN          FAIR      38  31  76 S5        30.42S
BUENA VISTA    FAIR      38  25  58 CALM      30.44F
COPPER MTN     FAIR      45  21  39 SW7       30.64S
BERTHOUD PASS  FAIR      34  21  60 N18       30.65S WCI  23
COTTONWOOD PAS FAIR      48  23  37 SW6       30.52F
GUNNISON       FAIR      32  28  86 CALM      30.46S
KREMMLING      FAIR      32  27  80 CALM      30.45S
LEADVILLE      FAIR      31  21  66 CALM      30.52F
MONARCH PASS   FAIR      37  21  52 SW10      30.74S
SALIDA         FAIR      41  26  55 W7        30.51S
SUNLIGHT       FAIR      46  30  53 CALM      30.59F
WILKERSON PASS FAIR      39  21  48 W8        30.60F
$$

COZ069>075-271100-
...SAN LUIS VALLEY/SANGRE DE CRISTO MOUNTAINS...

CITY           SKY/WX    TMP DP  RH WIND       PRES   REMARKS
ALAMOSA        FAIR      35  29  78 SE3       30.42S
LA VETA PASS   FAIR      43  30  61 MISG      30.53F
SAGUACHE       NOT AVBL
$$

COZ035-036-038>040-271100-
...NORTHERN COLORADO FRONT RANGE...

CITY           SKY/WX    TMP DP  RH WIND       PRES   REMARKS
DENVER INTL AP FAIR      47  31  53 SW5       30.26F
DMNS CITY PARK   N/A     50  34  55 S6        30.27S
AURORA         CLEAR     46  32  57 S6        30.28F
FRONT RANGE AP NOT AVBL
ERIE MUNI ARPT FAIR      43  34  70 CALM      30.26F
BOULDER MUN AP FAIR      52  32  46 CALM      30.26F
CENTENNIAL     FAIR      50  31  48 SW5       30.29F
BROOMFIELD     FAIR      52  32  46 W3        30.28F
FORT COLLINS   FAIR      46  39  76 N6        30.26F
LONGMONT       FAIR      49  34  56 W6        30.27F
$$

COZ041-046-047-076>085-087-088-271100-
...PIKES PEAK/PALMER DIVIDE AND SOUTHERN FOOTHILLS...

CITY           SKY/WX    TMP DP  RH WIND       PRES   REMARKS
COLO. SPRINGS  FAIR      45  30  55 N8        30.32F
A. F. ACADEMY  FAIR      39  29  66 N10       30.32F
SCHRIEVER AFB  NOT AVBL
ELLICOTT       NOT AVBL
FALCON         FAIR      44  29  57 W7        30.35F
FORT CARSON    FAIR      48  31  51 NW8       30.28F
LIMON          FAIR      35  26  69 N5        30.27F WCI  31
MONUMENT HILL  FAIR      41  28  60 SW8       30.36F
TRINIDAD       FAIR      47  34  60 W10       30.30F
$$

COZ042>045-048>051-090-091-271100-
...NORTHEAST COLORADO...

CITY           SKY/WX    TMP DP  RH WIND       PRES   REMARKS
GREELEY ARPT   FAIR      43  37  81 NW6       30.25F
AKRON          FAIR      51  36  56 SW8       30.23F
BURLINGTON     FAIR      46  38  73 W8        30.21F
WRAY           NOT AVBL
STERLING       FAIR      39  36  87 S5        30.20F
HOLYOKE        FAIR      45  37  76 W8        30.20R
FORT MORGAN    FAIR      47  35  61 W5        30.24S
$$

COZ086-089-092>099-271100-
...SOUTHEAST COLORADO...

CITY           SKY/WX    TMP DP  RH WIND       PRES   REMARKS
PUEBLO         FAIR      46  30  53 NW5       30.25F
LA JUNTA       FAIR      50  31  48 W10       30.22F
LAMAR          FAIR      41  31  67 SW6       30.19F
SPRINGFIELD    NOT AVBL
$$




USA.gov is the U.S. government's official web portal to all federal, state and local government web resources and services.